RH
14 13 13 17 32 28 20 18 12 11 12 13 15 15 15 12 11 13 13 12 13 14 18 14 12 12 19 23 25 25 34 37 28 24 23 26 29 24 25 25 28 27 30 33 54
20 16 15 14 14 19 30 24 18 15 12 10 10 13 14 14 13 10 8 8 10 12 19 16 14 15 26 24 27 35 44 28 22 20 18 24 25 23 23 29 31 33 36 34 50
35 19 16 15 16 16 14 18 28 24 17 14 11 10 12 15 17 8 6 6 7 11 15 15 14 24 27 24 29 33 43 29 20 17 19 19 23 22 24 35 30 39 43 47 52
53 50 50 35 19 16 17 18 16 15 25 18 15 14 14 24 19 14 12 11 12 15 15 12 23 27 32 31 24 28 26 22 18 18 20 21 20 22 22 21 19 27 30 41 49
13 5 4 15 43 43 24 16 14 16 15 23 18 16 17 32 20 9 11 13 11 20 16 12 21 27 29 27 24 29 25 19 17 20 21 22 24 24 24 19 18 23 33 35 40
58 42 8 2 2 5 34 44 23 16 12 14 27 21 21 56 10 8 8 10 11 14 19 13 19 21 24 23 25 18 23 21 17 21 23 28 29 25 21 18 20 23 36 34 35
20 12 6 3 2 1 2 2 41 35 20 13 30 28 28 15 12 20 19 16 16 14 10 9 11 24 24 22 17 19 22 27 27 25 27 26 34 34 19 19 19 20 28 36 40
40 26 10 5 2 2 2 1 1 26 40 17 32 34 40 16 12 18 25 22 19 16 14 14 17 26 30 24 23 23 26 32 24 32 28 22 17 22 18 21 21 21 25 36 42
36 16 9 6 4 3 3 1 1 2 41 22 34 38 50 21 21 12 23 23 20 28 30 31 35 30 28 37 38 33 36 39 29 32 36 30 34 26 19 23 23 22 25 39 43
66 33 15 6 3 4 6 2 2 21 43 38 38 55 32 31 20 16 19 28 27 36 38 37 34 43 49 48 42 41 40 30 32 34 38 40 34 31 22 26 25 22 25 41 44
92 68 54 43 6 6 15 31 64 71 75 35 33 35 23 22 25 25 24 31 35 36 51 42 52 52 38 32 20 26 26 30 26 26 38 39 33 30 28 25 28 26 26 28 35
96 92 92 90 27 10 89 83 100 100 94 64 41 42 22 28 30 30 28 35 42 50 48 51 47 29 27 33 34 30 28 28 27 28 35 36 40 30 31 28 24 26 26 26 29
79 63 56 88 51 74 43 59 82 96 94 69 56 47 53 29 41 32 30 34 41 53 50 40 36 30 34 37 40 36 34 28 27 31 32 35 42 39 33 27 23 22 22 24 25
52 49 46 53 72 47 21 32 73 91 97 61 56 45 39 39 41 32 30 34 45 47 48 47 30 35 36 36 32 38 29 28 33 40 51 39 44 36 29 30 31 24 25 24 24
52 41 56 47 81 99 57 75 76 78 97 40 35 27 33 36 26 34 30 34 44 43 44 48 42 36 43 35 31 32 33 33 36 40 43 43 53 38 28 25 24 30 24 26 24
67 52 53 42 62 71 70 70 77 98 92 56 40 38 36 39 35 36 39 32 30 36 37 31 32 33 30 34 34 38 40 44 47 53 71 40 45 42 27 25 23 23 22 24 27
68 50 48 44 70 77 72 74 88 98 40 47 41 44 46 50 41 44 49 51 49 53 45 38 41 37 38 42 40 41 42 79 76 84 63 47 56 33 28 25 24 25 26 24 27
75 49 49 41 81 70 73 91 94 55 47 44 64 47 42 51 48 44 57 60 46 46 63 52 68 49 42 42 55 37 35 72 66 89 71 52 65 43 30 21 22 23 25 26 29
80 52 46 56 76 49 60 90 86 59 76 82 59 61 52 64 77 78 51 51 45 42 56 61 47 40 44 39 37 54 46 37 55 56 79 64 51 40 36 29 36 37 33 31 31
98 79 48 60 58 46 93 70 82 67 99 85 85 76 80 71 79 88 88 47 44 38 38 45 56 52 47 36 38 45 35 51 64 72 62 61 56 51 36 38 42 43 46 36 35
93 97 51 50 47 65 98 97 59 48 61 95 91 94 92 94 91 77 90 83 44 44 37 38 47 61 48 52 48 54 51 48 43 70 66 72 60 45 34 35 37 44 43 38 45
98 96 54 55 77 81 94 89 62 51 47 82 74 90 87 84 91 79 59 62 80 57 48 38 42 71 65 47 44 40 44 41 58 60 68 77 58 38 41 38 42 45 44 39 42
99 96 65 52 94 88 75 64 53 53 54 90 72 86 72 67 94 73 93 91 98 93 59 40 52 84 69 56 50 56 48 42 47 55 66 62 56 42 38 39 42 49 47 45 50
99 96 73 53 52 77 88 68 68 48 71 76 70 63 66 65 48 93 90 86 95 97 94 74 66 69 74 60 58 59 53 47 44 68 49 65 47 44 43 42 51 55 50 50 53
99 95 79 91 64 78 81 73 74 71 62 54 77 62 73 88 78 68 65 71 73 100 92 89 89 77 85 70 64 50 53 50 52 44 56 40 46 39 42 44 48 54 61 63 65
99 98 98 98 89 72 74 71 64 66 53 59 69 54 55 70 66 82 68 68 86 91 95 97 99 80 90 82 83 95 57 53 50 46 45 46 51 39 37 42 46 57 66 71 75
93 98 98 78 92 92 81 62 60 55 52 49 53 59 56 53 46 47 50 50 59 68 74 99 100 99 88 85 100 98 78 64 53 49 47 55 40 35 39 42 46 51 63 68 73
Wind_Speed
17 16 17 17 18 17 15 16 15 15 15 16 17 16 16 16 18 21 30 27 21 20 16 13 10 10 10 9 10 4 1 6 7 5 8 6 5 9 7 12 14 16 9 8 33
18 19 17 16 15 16 16 16 18 19 19 18 18 18 18 19 22 32 32 25 22 19 19 17 16 12 7 6 8 5 4 9 6 5 5 8 9 16 8 10 6 13 10 15 33
22 22 19 18 19 19 17 16 17 18 21 21 20 18 17 17 24 29 21 22 24 22 19 16 11 11 12 10 11 7 7 6 10 11 6 3 4 16 11 5 16 25 23 27 35
24 24 22 22 22 22 20 20 19 18 18 21 22 20 15 11 8 4 5 9 16 23 20 18 16 9 7 8 17 6 13 17 10 8 4 3 3 7 20 14 17 28 28 31 35
27 27 26 24 24 23 23 23 23 21 20 19 18 22 18 13 31 16 11 14 10 27 28 22 21 20 5 6 18 8 8 14 18 12 10 8 11 10 16 26 14 22 32 33 34
26 29 28 29 29 28 25 25 24 24 24 20 19 20 21 14 27 26 29 30 21 20 27 27 16 22 8 11 7 7 19 11 12 11 8 7 6 7 11 21 28 21 37 37 37
29 30 31 32 31 28 28 28 26 25 24 22 19 20 27 46 16 10 18 24 24 25 26 27 25 14 5 5 22 8 4 5 7 7 6 6 9 14 32 17 26 31 33 41 42
31 33 34 34 33 33 32 30 27 25 25 22 17 21 21 32 25 32 23 26 24 23 23 20 22 21 10 7 4 3 1 5 4 12 6 12 17 6 22 31 25 31 33 39 44
31 33 34 33 35 37 35 33 27 23 22 21 18 20 13 15 29 39 35 32 21 21 20 18 15 11 6 5 3 4 5 7 7 12 6 7 9 7 8 28 30 29 36 39 41
35 37 37 35 32 32 35 34 25 20 16 13 15 7 21 20 20 23 31 34 25 19 15 16 11 4 3 6 14 9 6 6 8 6 7 9 20 9 10 17 25 34 36 39 42
36 37 39 42 35 35 28 23 9 7 19 23 25 20 3 18 13 17 29 33 24 22 10 11 7 15 22 26 21 9 9 6 4 7 8 16 19 15 18 9 19 26 35 42 45
37 38 38 40 41 27 11 11 12 17 16 31 40 32 26 13 8 20 29 23 17 14 5 4 19 26 15 10 12 9 13 15 7 4 13 6 17 19 8 11 24 31 36 45 44
38 40 42 42 44 12 24 12 26 23 9 23 38 47 41 40 23 25 40 30 21 16 17 19 7 17 16 15 16 19 20 18 14 4 3 4 9 10 9 25 30 36 40 43 48
38 41 43 43 32 39 31 18 22 30 7 12 9 18 36 37 19 41 48 37 8 26 19 17 20 18 17 25 21 22 16 18 13 6 6 9 11 8 6 11 13 30 34 42 40
37 38 41 39 33 25 22 23 23 14 6 8 5 11 13 21 5 36 49 31 23 14 12 15 12 22 16 23 22 19 8 15 7 5 3 5 2 4 9 13 12 15 30 36 46
40 40 43 44 31 25 21 19 14 1 7 6 3 4 2 14 3 6 34 35 10 9 13 17 8 15 26 6 21 9 7 6 5 4 7 11 10 7 11 11 9 6 25 32 40
39 42 40 43 25 19 17 14 3 4 7 11 11 16 23 8 13 4 12 20 15 12 20 12 5 4 6 6 2 7 11 1 1 1 9 10 10 19 7 9 10 11 15 24 36
38 41 42 28 9 21 15 2 5 7 10 18 22 16 10 20 18 10 7 12 21 7 1 17 7 14 5 9 9 16 15 7 11 6 5 5 8 6 16 18 14 11 13 15 30
37 40 44 8 14 24 11 3 4 5 9 15 21 14 13 10 11 12 17 17 17 26 11 9 13 1 9 6 13 6 13 9 4 1 4 5 6 8 8 5 4 7 15 21 28
34 36 22 8 20 23 2 4 4 16 8 6 6 6 19 14 8 10 8 11 14 23 16 5 3 3 1 5 2 8 9 2 1 5 5 4 5 6 5 9 8 8 9 21 24
27 11 13 9 22 7 1 1 10 16 18 7 6 6 12 17 9 9 8 19 16 15 23 23 3 2 4 9 17 4 5 5 5 5 5 3 6 6 9 9 17 11 18 28 29
17 4 8 23 5 2 1 2 11 11 16 5 6 8 11 18 6 8 11 14 33 19 20 19 16 7 8 2 5 10 8 11 5 5 4 4 5 1 3 1 9 10 20 27 29
10 14 16 8 1 2 3 2 4 10 9 5 5 8 9 9 10 17 15 25 39 17 6 16 5 5 1 3 2 7 10 10 2 2 6 7 5 2 0 3 7 12 23 30 31
9 3 8 5 7 4 0 3 5 9 3 4 7 5 8 10 7 12 14 13 35 19 31 12 6 10 5 2 5 6 10 16 16 5 9 6 4 6 6 7 7 16 28 32 34
5 3 6 4 5 1 2 3 8 4 3 6 4 4 5 4 16 3 13 19 19 11 16 7 4 14 5 6 3 3 8 17 17 24 9 14 10 9 9 10 10 20 26 31 35
9 9 7 7 15 7 5 3 7 7 1 6 3 15 10 10 12 20 17 17 7 10 13 9 2 4 10 10 4 4 7 8 17 18 12 11 7 6 4 7 11 21 26 28 35
28 15 10 10 3 2 3 4 6 8 5 9 13 10 11 9 19 25 29 32 21 19 14 5 1 3 6 11 8 5 12 9 5 6 11 13 18 9 6 8 12 20 28 33 39
Wind_Direction
357 356 355 354 350 339 323 308 292 279 273 278 282 281 283 279 275 268 259 253 251 246 241 234 233 224 206 215 198 191 89 248 239 237 263 185 137 161 164 143 170 181 174 192 182
347 343 342 341 341 339 333 320 306 294 281 273 273 281 285 290 282 266 259 265 252 238 238 246 239 209 200 213 195 162 181 224 209 217 235 202 175 173 157 152 171 165 169 177 178
338 335 332 331 331 330 327 323 317 308 296 283 273 268 277 288 297 276 273 250 242 234 226 243 234 216 216 220 198 197 217 218 261 244 222 183 221 184 153 200 194 178 170 174 180
339 329 328 328 324 321 318 319 317 314 309 293 281 272 263 264 249 237 202 230 225 219 215 215 216 225 201 218 212 220 238 235 251 235 212 203 232 200 192 200 219 209 210 189 188
336 332 329 322 317 313 310 310 310 309 308 299 276 269 260 241 242 242 254 288 256 217 220 211 206 218 217 222 236 234 237 230 244 218 218 226 244 233 221 217 214 205 201 203 204
342 336 327 320 315 312 306 303 302 301 302 298 274 254 242 250 259 257 250 258 248 218 217 208 205 209 241 245 187 251 239 246 238 230 218 200 250 224 234 221 215 197 199 210 209
336 331 327 324 319 313 308 300 295 293 294 290 268 247 238 244 263 255 255 244 239 235 225 222 211 188 186 273 282 241 242 298 230 213 231 206 283 230 231 214 212 209 208 210 212
336 332 329 326 321 317 315 305 298 289 289 282 253 236 246 262 263 239 239 241 228 226 224 222 214 235 225 253 310 286 191 251 251 179 222 147 261 263 244 215 219 211 210 210 212
343 339 333 323 319 315 314 302 296 280 277 263 233 216 256 255 226 235 226 227 223 212 209 205 214 207 186 156 340 235 244 230 298 193 145 165 264 254 299 216 218 215 209 208 212
347 344 339 332 325 318 313 304 298 265 247 218 211 211 240 227 228 226 215 221 215 200 194 192 186 181 175 152 215 204 215 229 215 204 174 204 249 267 269 206 216 215 207 204 210
342 344 342 340 334 329 319 331 334 278 204 200 202 203 208 226 234 215 203 192 196 185 187 202 170 200 198 200 211 176 204 213 255 197 160 215 236 244 249 236 226 219 212 207 215
337 337 337 339 339 333 334 334 353 321 282 256 241 240 224 173 206 195 192 173 178 198 164 183 220 212 206 206 214 211 231 251 272 212 181 220 241 253 233 235 224 217 213 212 215
335 335 336 336 340 348 315 301 327 331 261 274 247 243 230 228 225 208 187 191 189 189 199 210 221 215 193 188 199 224 222 231 236 190 274 15 271 254 231 232 231 230 223 217 215
330 331 332 335 338 328 326 324 337 328 257 268 253 249 227 219 233 211 194 179 204 207 196 229 243 198 196 208 191 218 209 224 224 153 219 160 276 247 244 241 220 230 220 219 212
334 332 332 338 321 314 329 337 335 330 252 264 229 265 219 181 146 201 201 191 199 171 169 213 183 212 215 211 197 218 171 195 192 203 162 202 266 241 221 249 252 229 231 218 212
330 331 332 335 333 343 334 329 328 213 261 266 331 329 166 213 237 78 184 202 238 206 218 210 178 192 216 175 201 142 93 57 57 113 236 218 207 232 218 217 241 241 233 219 205
330 329 329 330 322 334 329 323 318 212 311 279 299 355 342 315 224 144 161 202 203 197 224 222 204 168 150 125 114 138 136 60 318 236 235 202 214 246 241 243 219 239 238 219 201
327 324 326 333 3 344 343 328 236 273 279 339 342 330 319 309 290 211 164 187 216 232 323 216 235 176 186 178 172 189 185 173 198 187 212 154 227 244 219 245 217 212 176 172 182
328 327 332 6 323 333 351 276 260 315 352 334 333 339 333 321 357 322 204 210 207 201 190 182 232 144 177 145 153 210 213 193 70 49 98 204 270 293 236 217 159 162 165 162 170
326 323 327 332 312 321 67 260 296 355 324 310 311 351 305 310 303 310 319 237 215 208 201 206 214 346 78 94 102 180 164 152 135 187 227 243 238 217 234 216 176 183 164 165 165
319 307 315 320 313 328 223 133 326 327 339 324 337 297 327 346 300 277 260 306 230 206 200 215 180 281 138 197 190 142 185 198 176 169 181 166 249 216 216 212 186 181 175 169 167
312 255 298 323 7 290 28 277 311 325 332 338 308 335 4 320 280 274 258 214 358 300 197 208 203 191 208 273 211 216 210 188 188 227 208 153 260 331 307 280 156 165 174 174 174
304 290 318 290 239 268 303 315 294 315 324 350 313 0 348 356 320 335 5 329 344 330 231 185 200 165 135 347 352 206 209 212 203 75 198 181 246 205 120 74 152 153 170 173 171
305 301 316 273 268 143 86 314 302 300 263 262 284 323 340 311 314 293 339 323 310 309 299 317 137 202 167 227 139 193 201 212 208 223 222 213 224 209 208 181 153 158 170 174 176
278 258 260 284 283 264 113 227 288 297 262 304 306 310 310 311 313 295 313 318 319 5 339 335 168 155 184 24 332 230 217 222 207 224 196 241 224 256 207 200 195 176 166 167 174
325 333 316 285 272 291 299 241 270 283 289 291 282 305 311 292 287 298 312 307 282 289 335 326 312 158 201 137 40 336 307 211 222 240 248 272 280 252 52 144 158 184 175 177 180
333 315 274 268 250 224 236 228 277 322 304 296 291 308 309 317 304 290 283 277 263 274 303 278 266 140 215 155 129 243 230 251 198 190 212 228 243 253 262 218 191 193 189 189 190